| time (UTC) | temp C | wind direction | speed KPH | gust KPH | rain 1hr cm | rain 24hr cm | rain mn cm | humidity % | barometer mb |
| 20260508103016 | 6 | 0.0 | 1.6 | 0.00 | 0.00 | 0.00 | 64 | 1011.8 | |
| 20260508100015 | 7 | 0.0 | 4.8 | 0.00 | 0.03 | 0.00 | 63 | 1011.5 | |
| 20260508093015 | 7 | 0.0 | 3.2 | 0.00 | 0.03 | 0.00 | 61 | 1011.3 | |
| 20260508090015 | 7 | 0.0 | 3.2 | 0.00 | 0.03 | 0.00 | 60 | 1011.0 | |
| 20260508083016 | 7 | 0.0 | 6.4 | 0.00 | 0.03 | 0.00 | 59 | 1011.0 | |
| 20260508080018 | 8 | 0.0 | 1.6 | 0.00 | 0.03 | 0.00 | 58 | 1010.9 | |
| 20260508073020 | 8 | 0.0 | 1.6 | 0.00 | 0.03 | 0.00 | 56 | 1011.2 | |
| 20260508070017 | 8 | 0.0 | 4.8 | 0.00 | 0.03 | 0.00 | 54 | 1011.0 | |
| 20260508063037 | 8 | 0.0 | 8.0 | 0.00 | 0.03 | 0.00 | 52 | 1011.0 | |
| 20260508060016 | 8 | 0.0 | 6.4 | 0.00 | 0.03 | 0.00 | 50 | 1011.2 | |
| 20260508053017 | 8 | 0.0 | 1.6 | 0.00 | 0.05 | 0.00 | 50 | 1010.5 | |
| 20260508050018 | 8 | 0.0 | 0.0 | 0.00 | 0.05 | 0.00 | 47 | 1009.9 | |
| 20260508043017 | 8 | 0.0 | 0.0 | 0.00 | 0.05 | 0.00 | 50 | 1010.1 | |
| 20260508040016 | 7 | 0.0 | 0.0 | 0.00 | 0.05 | 0.05 | 52 | 1009.8 | |
| 20260508033018 | 7 | 0.0 | 0.0 | 0.00 | 0.05 | 0.05 | 55 | 1009.9 | |
| 20260508030038 | 8 | 0.0 | 0.0 | 0.00 | 0.05 | 0.05 | 52 | 1009.9 | |
| 20260508023017 | 8 | 0.0 | 0.0 | 0.00 | 0.05 | 0.05 | 49 | 1009.9 | |
| 20260508020019 | 9 | 0.0 | 0.0 | 0.00 | 0.05 | 0.05 | 44 | 1009.7 | |
| 20260508013017 | 10 | 0.0 | 0.0 | 0.00 | 0.05 | 0.05 | 46 | 1009.5 | |
| 20260508010016 | 10 | 0.0 | 0.0 | 0.00 | 0.05 | 0.05 | 47 | 1009.2 | |
| 20260508003017 | 11 | 0.0 | 0.0 | 0.00 | 0.05 | 0.05 | 42 | 1008.6 | |
| 20260508000017 | 12 | 0.0 | 1.6 | 0.00 | 0.05 | 0.05 | 35 | 1008.3 | |
| 20260507233016 | 13 | 0.0 | 3.2 | 0.00 | 0.05 | 0.05 | 32 | 1008.3 | |
| 20260507230016 | 14 | 338 | 1.6 | 6.4 | 0.00 | 0.05 | 0.05 | 31 | 1008.0 |
| 20260507223016 | 15 | 23 | 1.6 | 6.4 | 0.00 | 0.05 | 0.05 | 28 | 1008.0 |
| 20260507220017 | 15 | 23 | 1.6 | 8.0 | 0.00 | 0.05 | 0.05 | 29 | 1008.2 |
| 20260507213016 | 15 | 23 | 3.2 | 9.7 | 0.00 | 0.05 | 0.05 | 29 | 1007.9 |
| 20260507210016 | 15 | 23 | 3.2 | 9.7 | 0.00 | 0.05 | 0.05 | 28 | 1007.7 |
| 20260507203016 | 15 | 23 | 1.6 | 9.7 | 0.00 | 0.05 | 0.05 | 28 | 1007.6 |
| 20260507200016 | 15 | 23 | 1.6 | 9.7 | 0.00 | 0.15 | 0.05 | 30 | 1007.8 |
| 20260507193016 | 16 | 23 | 3.2 | 9.7 | 0.00 | 0.18 | 0.05 | 27 | 1008.2 |
| 20260507190018 | 17 | 23 | 3.2 | 9.7 | 0.00 | 0.20 | 0.05 | 25 | 1008.5 |
| 20260507183016 | 17 | 293 | 1.6 | 8.0 | 0.00 | 0.28 | 0.05 | 24 | 1008.6 |
| 20260507180036 | 17 | 45 | 3.2 | 8.0 | 0.00 | 0.33 | 0.05 | 28 | 1008.9 |
| 20260507173016 | 16 | 0 | 1.6 | 8.0 | 0.00 | 0.41 | 0.05 | 31 | 1009.4 |
| 20260507170138 | 15 | 23 | 1.6 | 9.7 | 0.00 | 0.46 | 0.05 | 32 | 1009.7 |
| 20260507163015 | 14 | 68 | 1.6 | 8.0 | 0.00 | 0.53 | 0.05 | 31 | 1010.0 |
| 20260507160015 | 13 | 0 | 1.6 | 6.4 | 0.00 | 0.66 | 0.05 | 35 | 1010.6 |
| 20260507153015 | 13 | 338 | 3.2 | 8.0 | 0.00 | 0.76 | 0.05 | 33 | 1010.9 |
| 20260507150015 | 12 | 68 | 3.2 | 11.3 | 0.00 | 0.79 | 0.05 | 37 | 1011.1 |
| 20260507143015 | 12 | 23 | 3.2 | 9.7 | 0.00 | 0.79 | 0.05 | 39 | 1011.1 |
| 20260507140015 | 11 | 23 | 4.8 | 12.9 | 0.00 | 0.79 | 0.05 | 40 | 1011.4 |
| 20260507133015 | 11 | 23 | 3.2 | 11.3 | 0.00 | 0.79 | 0.05 | 43 | 1011.5 |
| 20260507130016 | 11 | 68 | 3.2 | 8.0 | 0.00 | 0.79 | 0.05 | 54 | 1011.3 |
| 20260507123016 | 11 | 23 | 3.2 | 9.7 | 0.00 | 0.79 | 0.05 | 57 | 1011.2 |
| 20260507120015 | 12 | 0 | 1.6 | 6.4 | 0.00 | 0.79 | 0.05 | 63 | 1011.2 |
| 20260507113015 | 10 | 0.0 | 4.8 | 0.00 | 0.79 | 0.05 | 71 | 1011.0 | |
| 20260507110019 | 8 | 0.0 | 0.0 | 0.03 | 0.79 | 0.05 | 76 | 1010.7 |